Regional Weather Roundup
Issued by NWS

Home | Current Version | Previous Version | Text Only | Print | Product List | Glossary Off
Versions: 1 2 3 4 5 6 7 8 9 10 11 12 13 14 15 16 17 18 19 20 21 22 23 24 25 26 27 28 29 30 31 32 33 34 35 36 37 38 39 40 41 42 43 44 45 46 47 48 49 50

000
ASUS44 KMEG 051310
RWRTN
TENNESSEE HOURLY STATE WEATHER ROUNDUP
NATIONAL WEATHER SERVICE MEMPHIS TN
700 AM CST THU MAR 05 2015

TNZ002-004-019-021-049-052-054-088>092-051400-
WEST TENNESSEE

CITY           SKY/WX    TMP DP  RH WIND       PRES   REMARKS
MEMPHIS INTL   LGT SNOW  21  16  81 N16G23    30.38S FOG     WCI   7
NWS MEMPHIS      N/A     20 N/A N/A MISG        N/A
JACKSON        CLOUDY    19  15  84 N14       30.36R FOG     WCI   6
DYERSBURG      CLOUDY    19   5  53 CALM      30.43R
UNION CITY     CLOUDY    18  16  93 N7        30.39R WCI   8
PARIS          CLOUDY    16  12  86 N9        30.36R WCI   4
LEXINGTON        N/A     19  16  86 N12       30.29R WCI   7
SAVANNAH       CLOUDY    21  18  86 N12       30.28R WCI   9
$$

TNZ008-025-027-028-033-062-065-066-051400-
NORTH MIDDLE TENNESSEE

CITY           SKY/WX    TMP DP  RH WIND       PRES   REMARKS
NASHVILLE      SNOW      21  18  88 N14       30.26R VSB 1/2 WCI   8
CLARKSVILLE    CLOUDY    18  15  88 N15       30.34S FOG     WCI   4
SMYRNA         LGT SNOW  21  19  93 N12G20    30.26R FOG     WCI   9
COOKEVILLE     CLOUDY    25  21  86 N8        30.15R WCI  16
CROSSVILLE     MIX PCPN  27  23  85 N13G23    30.07S FOG     WCI  16
$$

TNZ061-075-076-078-094-096-097-051400-
SOUTH MIDDLE TENNESSEE

CITY           SKY/WX    TMP DP  RH WIND       PRES   REMARKS
FAYETTEVILLE   CLOUDY    25  21  86 N10         N/A  WCI  15
TULLAHOMA      CLOUDY    25  23  93 N15         N/A  WCI  12
WINCHESTER     CLOUDY    28  27  93 N13       30.11R WCI  18
MCMINNVILLE    CLOUDY    27  27 100 N10       30.13S WCI  17
COLUMBIA         N/A    N/A N/A N/A N8        30.22R
SHELBYVILLE    CLOUDY    25  21  86 N10       30.17R WCI  15
$$

TNZ017-018-042-046-047-051400-
NORTHEAST TENNESSEE

CITY           SKY/WX    TMP DP  RH WIND       PRES   REMARKS
TRI CITIES     LGT RAIN  35  34  96 NW7       30.02R FOG     WCI  29
ELIZABETHTON   LGT RAIN  36  34  93 SW6       29.98R FOG     WCI  31
$$

TNZ012-013-036-069-073-074-051400-
CENTRAL EAST TENNESSEE

CITY           SKY/WX    TMP DP  RH WIND       PRES   REMARKS
KNOXVILLE      LGT RAIN  36  34  92 N13       30.03S FOG     WCI  27
OAK RIDGE      CLOUDY    36  33  89 NE3       30.05R
GATLINBURG     CLOUDY    36  36 100 N3        30.02S
MORRISTOWN     PTSUNNY   36  36 100 N7        30.03R WCI  30
$$

TNZ083-085-099-051400-
SOUTHEAST TENNESSEE

CITY           SKY/WX    TMP DP  RH WIND       PRES   REMARKS
CHATTANOOGA    RAIN      38  36  92 N9        30.06R FOG     WCI  31
$$

SKY/WX REPORTED AS FAIR MEANS FEW OR NO CLOUDS BELOW
12 THOUSAND FEET.



USA.gov is the U.S. government's official web portal to all federal, state and local government web resources and services.